User: anonymous   Login
Location: Unspecified
(0.0000°N, 0.0000°E)
Time: 07:52:24
(UTC+00:00)
Language:

Sapphire - Orbit

View from above orbital plane
View from above orbital plane
View from above satellite
View from above satellite

Ground track
Ground track

The orbit data is extracted from the following two-line orbital elements,

1 26932U 01043D   19082.80709120 -.00000068 +00000-0 +58316-5 0  9990
2 26932 067.0552 231.1588 0004601 255.8168 104.2422 14.30301198912482
Epoch (UTC): 23 March 2019 19:22:12
Eccentricity: 0.0004601
inclination: 67.0552°
perigee height: 787 km
apogee height: 794 km
right ascension of ascending node: 231.1588°
argument of perigee: 255.8168°
revolutions per day: 14.30301198
mean anomaly at epoch: 104.2422°
orbit number at epoch: 91248

The dashed part of the orbit path shows where the satellite is in the earth's shadow,  

DLR